CSG-1

Last updated on Fri Oct 04 2024 00:02:26 GMT+0000 (Coordinated Universal Time)

1 44873U 19092A 24277.54938774 .00003519 00000+0 44822-3 0 9996 2 44873 97.8889 99.1310 0001468 88.4001 271.7380 14.82166475259390
UTC large
Height (km)
Speed (km/s)
/
Latitude / Longitude
Inclination (degrees)
Orbital Period (minutes)
Azimuth
Elevation
Range (km)
Doppler Factor

Next 0 passes for location: London (51.5072 / 0.1276)

Sorry there are no passes over London.